Location: Newark
(47.5333°N, 8.7000°E)
Time: 17:55:05
(UTC+00:00)

BEESAT 3 - Pass Details

Date: 27 November 2020
Orbit: 491 x 509 km, 64.9° (Epoch: 14 January)

Event Time Altitude Azimuth Distance (km) Brightness Sun altitude
Exits shadow 05:23:47 23° 295° (WNW) 1,111 ? -13.7°
Maximum altitude 05:24:44 26° 320° (NW) 1,036 ? -13.6°
Drops below altitude 10° 05:28:03 10° 18° (NNE) 1,738 ? -13.0°
Sets 05:30:30 0° 32° (NNE) 2,626 ? -12.6°
